| time (UTC) | temp F | wind direction | speed knots | gust knots | rain 1hr in | rain 24hr in | rain mn in | humidity % | barometer mb |
| 20260506231320 | 46 | 82 | 2.6 | 8.7 | 0.00 | 0.00 | 0.00 | 85 | 1012.1 |
| 20260506230319 | 46 | 98 | 2.6 | 7.0 | 0.00 | 0.00 | 0.00 | 85 | 1012.0 |
| 20260506225744 | 46 | 82 | 1.7 | 7.0 | 0.00 | 0.00 | 0.00 | 85 | 1012.0 |
| 20260506224305 | 46 | 70 | 2.6 | 7.0 | 0.00 | 0.00 | 0.00 | 84 | 1012.0 |
| 20260506223751 | 47 | 72 | 4.3 | 7.8 | 0.00 | 0.00 | 0.00 | 83 | 1011.9 |
| 20260506222307 | 47 | 73 | 2.6 | 9.6 | 0.00 | 0.00 | 0.00 | 83 | 1011.8 |
| 20260506221322 | 47 | 81 | 3.5 | 8.7 | 0.00 | 0.00 | 0.00 | 83 | 1011.8 |
| 20260506220336 | 47 | 74 | 5.2 | 8.7 | 0.00 | 0.00 | 0.00 | 83 | 1011.7 |
| 20260506215307 | 47 | 82 | 3.5 | 8.7 | 0.00 | 0.00 | 0.00 | 84 | 1011.7 |
| 20260506214324 | 47 | 80 | 3.5 | 9.6 | 0.00 | 0.00 | 0.00 | 83 | 1011.7 |
| 20260506213749 | 48 | 74 | 2.6 | 9.6 | 0.00 | 0.00 | 0.00 | 83 | 1011.5 |
| 20260506212306 | 48 | 80 | 5.2 | 10.4 | 0.00 | 0.00 | 0.00 | 83 | 1011.4 |
| 20260506211305 | 48 | 96 | 5.2 | 10.4 | 0.00 | 0.00 | 0.00 | 83 | 1011.4 |
| 20260506210744 | 48 | 90 | 2.6 | 9.6 | 0.00 | 0.00 | 0.00 | 83 | 1011.4 |
| 20260506205306 | 48 | 100 | 4.3 | 9.6 | 0.00 | 0.00 | 0.00 | 83 | 1011.3 |
| 20260506204307 | 48 | 84 | 3.5 | 9.6 | 0.00 | 0.00 | 0.00 | 83 | 1011.3 |
| 20260506203306 | 49 | 86 | 5.2 | 9.6 | 0.00 | 0.00 | 0.00 | 82 | 1011.2 |
| 20260506202306 | 49 | 46 | 7.0 | 10.4 | 0.00 | 0.00 | 0.00 | 82 | 1011.2 |
| 20260506201313 | 49 | 28 | 3.5 | 10.4 | 0.00 | 0.00 | 0.00 | 82 | 1011.2 |
| 20260506200306 | 49 | 40 | 4.3 | 9.6 | 0.00 | 0.00 | 0.00 | 81 | 1011.1 |
| 20260506195307 | 49 | 78 | 4.3 | 11.3 | 0.00 | 0.00 | 0.00 | 79 | 1010.9 |
| 20260506194307 | 50 | 39 | 3.5 | 8.7 | 0.00 | 0.00 | 0.00 | 77 | 1010.9 |
| 20260506193306 | 50 | 42 | 3.5 | 10.4 | 0.00 | 0.00 | 0.00 | 76 | 1010.9 |
| 20260506192740 | 50 | 69 | 6.1 | 10.4 | 0.00 | 0.00 | 0.00 | 75 | 1010.8 |
| 20260506191306 | 51 | 49 | 5.2 | 11.3 | 0.00 | 0.00 | 0.00 | 76 | 1010.7 |
| 20260506190307 | 51 | 64 | 4.3 | 8.7 | 0.00 | 0.00 | 0.00 | 76 | 1010.5 |
| 20260506185307 | 51 | 40 | 5.2 | 11.3 | 0.00 | 0.00 | 0.00 | 75 | 1010.4 |
| 20260506184744 | 52 | 67 | 4.3 | 11.3 | 0.00 | 0.00 | 0.00 | 74 | 1010.2 |
| 20260506183307 | 52 | 69 | 5.2 | 9.6 | 0.00 | 0.00 | 0.00 | 73 | 1010.3 |
| 20260506182307 | 53 | 65 | 3.5 | 10.4 | 0.00 | 0.00 | 0.00 | 74 | 1010.2 |
| 20260506181305 | 53 | 55 | 4.3 | 9.6 | 0.00 | 0.00 | 0.00 | 75 | 1010.1 |
| 20260506180308 | 54 | 82 | 3.5 | 12.2 | 0.00 | 0.00 | 0.00 | 74 | 1010.0 |
| 20260506175306 | 54 | 70 | 5.2 | 10.4 | 0.00 | 0.00 | 0.00 | 73 | 1009.8 |
| 20260506174305 | 54 | 41 | 4.3 | 8.7 | 0.00 | 0.00 | 0.00 | 72 | 1009.9 |
| 20260506173306 | 55 | 74 | 4.3 | 10.4 | 0.00 | 0.00 | 0.00 | 71 | 1009.7 |
| 20260506172307 | 55 | 63 | 3.5 | 11.3 | 0.00 | 0.00 | 0.00 | 70 | 1009.7 |
| 20260506171309 | 56 | 71 | 4.3 | 12.2 | 0.00 | 0.00 | 0.00 | 68 | 1009.6 |
| 20260506170306 | 56 | 64 | 7.8 | 10.4 | 0.00 | 0.00 | 0.00 | 66 | 1009.5 |
| 20260506165306 | 56 | 32 | 4.3 | 12.2 | 0.00 | 0.00 | 0.00 | 65 | 1009.5 |
| 20260506164305 | 56 | 72 | 6.1 | 12.2 | 0.00 | 0.00 | 0.00 | 66 | 1009.5 |
| 20260506163749 | 56 | 34 | 5.2 | 11.3 | 0.00 | 0.00 | 0.00 | 61 | 1009.5 |
| 20260506162307 | 57 | 40 | 5.2 | 13.9 | 0.00 | 0.00 | 0.00 | 65 | 1009.5 |
| 20260506161305 | 57 | 59 | 4.3 | 11.3 | 0.00 | 0.00 | 0.00 | 65 | 1009.5 |
| 20260506160805 | 57 | 20 | 4.3 | 11.3 | 0.00 | 0.00 | 0.00 | 63 | 1009.5 |
| 20260506155306 | 58 | 46 | 6.1 | 12.2 | 0.00 | 0.00 | 0.00 | 55 | 1009.5 |
| 20260506154305 | 58 | 84 | 3.5 | 10.4 | 0.00 | 0.00 | 0.00 | 57 | 1009.6 |
| 20260506153305 | 58 | 59 | 6.1 | 12.2 | 0.00 | 0.00 | 0.00 | 56 | 1009.6 |
| 20260506152748 | 58 | 59 | 4.3 | 9.6 | 0.00 | 0.00 | 0.00 | 55 | 1009.6 |
| 20260506151305 | 58 | 61 | 6.1 | 10.4 | 0.00 | 0.00 | 0.00 | 52 | 1009.5 |
| 20260506150307 | 58 | 63 | 6.1 | 14.8 | 0.00 | 0.00 | 0.00 | 52 | 1009.5 |
| 20260506145306 | 58 | 31 | 7.0 | 12.2 | 0.00 | 0.00 | 0.00 | 52 | 1009.5 |
| 20260506144306 | 58 | 61 | 6.1 | 13.9 | 0.00 | 0.00 | 0.00 | 50 | 1009.5 |
| 20260506143306 | 58 | 65 | 7.8 | 14.8 | 0.00 | 0.00 | 0.00 | 49 | 1009.5 |
| 20260506142744 | 58 | 24 | 6.1 | 11.3 | 0.00 | 0.00 | 0.00 | 50 | 1009.5 |
| 20260506141305 | 58 | 45 | 7.8 | 13.9 | 0.00 | 0.00 | 0.00 | 50 | 1009.5 |
| 20260506140306 | 58 | 63 | 6.1 | 14.8 | 0.00 | 0.00 | 0.00 | 49 | 1009.6 |
| 20260506135306 | 58 | 34 | 5.2 | 12.2 | 0.00 | 0.00 | 0.00 | 49 | 1009.5 |
| 20260506134307 | 58 | 46 | 6.1 | 16.5 | 0.00 | 0.00 | 0.00 | 49 | 1009.5 |
| 20260506133306 | 58 | 17 | 8.7 | 16.5 | 0.00 | 0.00 | 0.00 | 47 | 1009.4 |
| 20260506132307 | 59 | 32 | 7.0 | 14.8 | 0.00 | 0.00 | 0.00 | 46 | 1009.3 |
| 20260506131305 | 59 | 51 | 6.1 | 16.5 | 0.00 | 0.00 | 0.00 | 48 | 1009.3 |
| 20260506130306 | 59 | 80 | 7.8 | 13.9 | 0.00 | 0.00 | 0.00 | 48 | 1009.3 |
| 20260506125307 | 60 | 355 | 9.6 | 15.6 | 0.00 | 0.00 | 0.00 | 50 | 1009.2 |
| 20260506124305 | 60 | 91 | 8.7 | 16.5 | 0.00 | 0.00 | 0.00 | 51 | 1009.2 |
| 20260506123306 | 60 | 70 | 6.1 | 14.8 | 0.00 | 0.00 | 0.00 | 50 | 1009.0 |
| 20260506122306 | 60 | 63 | 8.7 | 16.5 | 0.00 | 0.00 | 0.00 | 52 | 1009.0 |
| 20260506121305 | 59 | 19 | 7.8 | 14.8 | 0.00 | 0.00 | 0.00 | 53 | 1008.9 |
| 20260506120306 | 60 | 91 | 10.4 | 16.5 | 0.00 | 0.00 | 0.00 | 51 | 1008.9 |
| 20260506115307 | 60 | 28 | 7.8 | 17.4 | 0.00 | 0.00 | 0.00 | 52 | 1009.0 |
| 20260506114306 | 59 | 57 | 10.4 | 16.5 | 0.00 | 0.00 | 0.00 | 52 | 1009.0 |
| 20260506112816 | 59 | 19 | 10.4 | 17.4 | 0.00 | 0.00 | 0.00 | 47 | 1009.1 |
| 20260506111317 | 58 | 20 | 7.8 | 13.9 | 0.00 | 0.00 | 0.00 | 54 | 1009.0 |
| 20260506110746 | 58 | 90 | 10.4 | 16.5 | 0.00 | 0.00 | 0.00 | 52 | 1009.1 |
| 20260506105306 | 58 | 84 | 8.7 | 15.6 | 0.00 | 0.00 | 0.00 | 53 | 1009.1 |
| 20260506104306 | 58 | 30 | 8.7 | 16.5 | 0.00 | 0.00 | 0.00 | 53 | 1009.1 |
| 20260506103308 | 57 | 34 | 7.0 | 18.2 | 0.00 | 0.00 | 0.00 | 54 | 1009.2 |
| 20260506102756 | 57 | 66 | 8.7 | 15.6 | 0.00 | 0.00 | 0.00 | 55 | 1009.2 |
| 20260506101737 | 56 | 47 | 8.7 | 17.4 | 0.00 | 0.00 | 0.00 | 52 | 1009.2 |
| 20260506100307 | 56 | 86 | 7.8 | 16.5 | 0.00 | 0.00 | 0.00 | 57 | 1009.3 |
| 20260506095306 | 56 | 26 | 10.4 | 20.0 | 0.00 | 0.00 | 0.00 | 56 | 1009.6 |
| 20260506094305 | 55 | 80 | 11.3 | 16.5 | 0.00 | 0.00 | 0.00 | 56 | 1009.4 |
| 20260506093320 | 55 | 327 | 7.8 | 19.1 | 0.00 | 0.00 | 0.00 | 57 | 1009.4 |
| 20260506092306 | 55 | 24 | 9.6 | 16.5 | 0.00 | 0.00 | 0.00 | 58 | 1009.4 |
| 20260506091306 | 54 | 46 | 8.7 | 17.4 | 0.00 | 0.00 | 0.00 | 58 | 1009.5 |
| 20260506090306 | 54 | 27 | 12.2 | 18.2 | 0.00 | 0.00 | 0.00 | 53 | 1009.4 |
| 20260506085306 | 55 | 27 | 6.1 | 14.8 | 0.00 | 0.00 | 0.00 | 60 | 1009.4 |
| 20260506084755 | 54 | 69 | 6.1 | 14.8 | 0.00 | 0.00 | 0.00 | 59 | 1009.3 |
| 20260506083306 | 54 | 34 | 7.0 | 14.8 | 0.00 | 0.00 | 0.00 | 60 | 1009.4 |
| 20260506082306 | 54 | 90 | 8.7 | 15.6 | 0.00 | 0.00 | 0.00 | 59 | 1009.3 |
| 20260506081305 | 54 | 46 | 6.1 | 14.8 | 0.00 | 0.00 | 0.00 | 60 | 1009.3 |
| 20260506080746 | 53 | 66 | 7.8 | 19.1 | 0.00 | 0.00 | 0.00 | 59 | 1009.3 |
| 20260506072306 | 52 | 68 | 7.0 | 16.5 | 0.00 | 0.00 | 0.00 | 57 | 1009.5 |
| 20260506071306 | 52 | 35 | 8.7 | 13.9 | 0.00 | 0.00 | 0.00 | 64 | 1009.4 |
| 20260506070306 | 51 | 62 | 7.8 | 15.6 | 0.00 | 0.00 | 0.00 | 60 | 1009.4 |
| 20260506062306 | 50 | 58 | 4.3 | 15.6 | 0.00 | 0.00 | 0.00 | 68 | 1009.3 |
| 20260506061306 | 50 | 40 | 7.0 | 15.6 | 0.00 | 0.00 | 0.00 | 68 | 1009.3 |
| 20260506060306 | 50 | 5 | 5.2 | 14.8 | 0.00 | 0.00 | 0.00 | 70 | 1009.3 |
| 20260506051306 | 46 | 28 | 3.5 | 7.8 | 0.00 | 0.00 | 0.00 | 80 | 1009.2 |
| 20260506050306 | 46 | 30 | 3.5 | 7.8 | 0.00 | 0.00 | 0.00 | 81 | 1009.2 |
| 20260506044305 | 44 | 5 | 3.5 | 6.1 | 0.00 | 0.00 | 0.00 | 82 | 1009.3 |
| 20260506043306 | 44 | 26 | 3.5 | 7.8 | 0.00 | 0.00 | 0.00 | 82 | 1009.3 |
| 20260506042306 | 44 | 18 | 2.6 | 4.3 | 0.00 | 0.00 | 0.00 | 83 | 1009.2 |
| 20260506041306 | 43 | 26 | 3.5 | 4.3 | 0.00 | 0.00 | 0.00 | 84 | 1009.3 |
| 20260506040306 | 42 | 18 | 2.6 | 4.3 | 0.00 | 0.00 | 0.00 | 86 | 1009.2 |
| 20260506035308 | 42 | 36 | 2.6 | 4.3 | 0.00 | 0.00 | 0.00 | 88 | 1009.3 |
| 20260506034321 | 41 | 46 | 1.7 | 2.6 | 0.00 | 0.00 | 0.00 | 88 | 1009.3 |
| 20260506033306 | 41 | 49 | 1.7 | 2.6 | 0.00 | 0.00 | 0.00 | 89 | 1009.2 |
| 20260506032318 | 40 | 49 | 0.0 | 1.7 | 0.00 | 0.00 | 0.00 | 89 | 1009.3 |
| 20260506031305 | 40 | 49 | 0.0 | 0.0 | 0.00 | 0.00 | 0.00 | 90 | 1009.3 |
| 20260506030750 | 40 | 49 | 0.0 | 0.0 | 0.00 | 0.00 | 0.00 | 90 | 1009.4 |
| 20260506025321 | 40 | 49 | 0.0 | 0.0 | 0.00 | 0.00 | 0.00 | 85 | 1009.4 |
| 20260506024305 | 40 | 49 | 0.0 | 0.0 | 0.00 | 0.00 | 0.00 | 90 | 1009.5 |
| 20260506023310 | 40 | 49 | 0.0 | 0.0 | 0.00 | 0.00 | 0.00 | 89 | 1009.5 |
| 20260506022306 | 41 | 49 | 0.0 | 0.0 | 0.00 | 0.00 | 0.00 | 89 | 1009.5 |
| 20260506021305 | 41 | 49 | 0.0 | 0.0 | 0.00 | 0.00 | 0.00 | 89 | 1009.5 |
| 20260506020307 | 41 | 49 | 0.0 | 0.0 | 0.00 | 0.00 | 0.00 | 90 | 1009.7 |
| 20260506015308 | 41 | 49 | 0.0 | 0.0 | 0.00 | 0.00 | 0.00 | 90 | 1009.7 |
| 20260506014307 | 42 | 49 | 0.0 | 0.9 | 0.00 | 0.00 | 0.00 | 90 | 1009.7 |
| 20260506013305 | 42 | 49 | 0.9 | 2.6 | 0.00 | 0.00 | 0.00 | 90 | 1009.8 |
| 20260506012308 | 42 | 50 | 0.0 | 0.0 | 0.00 | 0.00 | 0.00 | 90 | 1009.7 |
| 20260506011305 | 42 | 50 | 0.0 | 0.0 | 0.00 | 0.00 | 0.00 | 89 | 1009.8 |
| 20260506005752 | 42 | 50 | 0.0 | 0.0 | 0.00 | 0.00 | 0.00 | 89 | 1009.7 |
| 20260506004306 | 43 | 50 | 0.0 | 0.0 | 0.00 | 0.00 | 0.00 | 89 | 1009.8 |
| 20260506003307 | 43 | 50 | 0.0 | 0.0 | 0.00 | 0.00 | 0.00 | 89 | 1009.9 |
| 20260506002306 | 43 | 50 | 0.0 | 0.0 | 0.00 | 0.00 | 0.00 | 89 | 1009.9 |
| 20260506001306 | 43 | 50 | 0.0 | 0.0 | 0.00 | 0.00 | 0.00 | 90 | 1009.8 |
| 20260506000306 | 43 | 50 | 0.0 | 0.0 | 0.00 | 0.00 | 0.00 | 90 | 1009.9 |
| 20260505234309 | 43 | 50 | 0.0 | 0.0 | 0.00 | 0.00 | 0.00 | 89 | 1010.0 |
| 20260505233305 | 44 | 50 | 0.0 | 0.0 | 0.00 | 0.00 | 0.00 | 89 | 1010.1 |
| 20260505232306 | 44 | 50 | 0.0 | 0.0 | 0.00 | 0.00 | 0.00 | 90 | 1009.9 |